Regional Weather Roundup
Issued by NWS San Angelo, TX

Home | Current Version | Previous Version | Text Only | Print | Product List | Glossary On
Versions: 1 2 3 4 5 6 7 8 9 10 11 12 13 14 15 16 17 18 19 20 21 22 23 24 25 26 27 28 29 30 31 32 33 34 35 36 37 38 39 40 41 42 43 44 45 46 47 48 49 50
000
ASUS44 KSJT 200802
RWRSJT
WEST CENTRAL TEXAS REGIONAL WEATHER ROUNDUP
NATIONAL WEATHER SERVICE SAN ANGELO TX
200 AM CST MON NOV 20 2017

NOTE: "FAIR" INDICATES FEW OR NO CLOUDS BELOW 12,000 FEET WITH NO
SIGNIFICANT WEATHER AND/OR OBSTRUCTIONS TO VISIBILITY.

TXZ049-054-064>066-071>073-076>078-098-099-113-114-127-128-139-140-
154-155-168>170-200900
...LOCATIONS ACROSS WEST CENTRAL TEXAS...

CITY           SKY/WX    TMP DP  RH WIND       PRES   REMARKS
SAN ANGELO     CLOUDY    36  26  67 SW5       30.17F WCI  32
ABILENE        CLOUDY    38  29  70 S5        30.16F WCI  34
DYESS AFB      CLEAR     38  29  70 S6        30.19F WCI  34
JUNCTION       PTCLDY    35  29  78 W3        30.19F
SWEETWATER     CLOUDY    39  28  62 S8        30.16F WCI  34
BROWNWOOD      NOT AVBL
COLEMAN        CLOUDY    39  29  67 S3        30.18F
SONORA         CLOUDY    32  21  64 CALM      30.22S
OZONA          FAIR      32  23  69 N3        30.19F
BRADY          NOT AVBL
$$

TEXAS PANHANDLE/OKLAHOMA PANHANDLE

CITY           SKY/WX    TMP DP  RH WIND       PRES   REMARKS
AMARILLO       CLOUDY    37  16  42 SW13      30.04F WCI  29
BORGER         CLEAR     41  16  36 S13       30.01F WCI  34
CANADIAN       CLEAR     42  18  38 SW13      30.02F WCI  35
DALHART        NOT AVBL
DUMAS          CLOUDY    38  15  38 SW18      29.97F WCI  28
GUYMON         NOT AVBL
HEREFORD       CLOUDY    35  18  50 MISG      30.06F
PAMPA          CLOUDY    40  15  35 SW16      30.02F WCI  32
PERRYTON       CLEAR     41  17  38 S13       29.96F WCI  34
$$

SOUTHERN PANHANDLE/SOUTH PLAINS/ROLLING PLAINS

CITY           SKY/WX    TMP DP  RH WIND       PRES   REMARKS
LUBBOCK        CLOUDY    38  17  42 SW9       30.10F WCI  31
SNYDER         CLOUDY    33  25  70 S5        30.15F WCI  29
CHILDRESS      CLOUDY    38  19  46 S9        30.11F WCI  31
SEMINOLE       CLOUDY    33  20  59 SW5       30.13F WCI  28
$$

PERMIAN BASIN

CITY           SKY/WX    TMP DP  RH WIND       PRES   REMARKS
MIDLAND        CLOUDY    40  19  43 S7        30.13F WCI  35
ODESSA         CLEAR     43  21  41 S9        30.14F WCI  38
WINK           CLEAR     41  20  43 SE9       30.11F WCI  35
$$

FAR WEST/SOUTHWEST MOUNTAINS/TRANS PECOS

CITY           SKY/WX    TMP DP  RH WIND       PRES   REMARKS
ALPINE         SUNNY     37  23  56 CALM      30.20F
DRYDEN           N/A     43  25  49 N8        30.14F WCI  38
EL PASO        CLEAR     44  18  35 NE6       30.13F
FORT STOCKTON  CLEAR     43  24  47 S9        30.14S WCI  38
GUADALUPE PASS CLOUDY    40  16  37 SW20      30.14F WCI  30
MARFA          CLOUDY    28  19  69 NW6       30.18F WCI  22
PECOS          NOT AVBL
$$

DALLAS/FORT WORTH METROPLEX

CITY           SKY/WX    TMP DP  RH WIND       PRES   REMARKS
DFW AIRPORT    CLOUDY    43  34  70 SW5       30.18F
FTW MEACHAM    CLOUDY    47  31  53 S3        30.19F
DAL-EXECUTIVE  CLOUDY    47  30  51 S5        30.19F
GRAND PRAIRIE  NOT AVBL
ADDISON        CLOUDY    48  27  45 CALM      30.22S
MESQUITE       CLOUDY    38  33  80 CALM      30.21F
LANCASTER      CLOUDY    35  31  88 CALM      30.22F
$$

NORTH CENTRAL TEXAS

CITY           SKY/WX    TMP DP  RH WIND       PRES   REMARKS
SHRMAN/DENISON NOT AVBL
GAINESVILLE    CLOUDY    39  28  64 CALM      30.20F
BRIDGEPORT     NOT AVBL
DENTON         CLOUDY    36  30  79 E3        30.19F
WAXAHACHIE     SUNNY     40  30  66 CALM      30.22F
GRANBURY       CLOUDY    36  33  86 CALM      30.21F
$$

WESTERN NORTH TEXAS

CITY           SKY/WX    TMP DP  RH WIND       PRES   REMARKS
WICHITA FALLS  CLOUDY    37  27  67 S9        30.15F WCI  30
VERNON         CLOUDY    37  23  57 SW6       30.15F WCI  32
BRECKENRIDGE   CLOUDY    41  30  65 CALM      30.18F
COMANCHE       CLOUDY    40  31  70 S8        30.20S WCI  34
$$

CENTRAL AND SOUTH CENTRAL TEXAS

CITY           SKY/WX    TMP DP  RH WIND       PRES   REMARKS
AUSTIN/BERGSTM CLOUDY    38  36  92 CALM      30.21F
WACO           CLOUDY    36  33  89 CALM      30.22F FOG
HILLSBORO      MOSUNNY   44  32  62 CALM      30.21S
TEMPLE         CLOUDY    39  30  70 CALM      30.22F
KILLEEN-GRAY   CLEAR     37  31  79 CALM      30.20F
FORT HOOD      PTCLDY    43  32  65 CALM      30.18F
GEORGETOWN     CLOUDY    38  33  82 CALM      30.24F
LAGO VISTA     FAIR      47  30  52 E3        30.21F
SAN MARCOS     CLOUDY    40  34  79 NW6       30.22F WCI  36
NEW BRAUNFELS  CLOUDY    41  34  76 NW3       30.20F
RANDOLPH AFB   CLOUDY    44  36  73 N7        30.20F WCI  40
SAN ANTONIO    CLOUDY    45  37  73 CALM      30.21F
STINSON        PTCLDY    47  36  65 CALM      30.19F
PLEASANTON     NOT AVBL
LA GRANGE      NOT AVBL
GIDDINGS       MOSUNNY   40  37  89 CALM      30.22F
$$

EAST TEXAS

CITY           SKY/WX    TMP DP  RH WIND       PRES   REMARKS
PARIS          PTCLDY    38  31  76 S3        30.21F
CLARKSVILLE    NOT AVBL
TYLER          CLOUDY    39  36  89 CALM      30.22F
LONGVIEW       NOT AVBL
PALESTINE      CLOUDY    38  33  83 CALM      30.23F
NACOGDOCHES    CLOUDY    34  33  96 CALM      30.23F
$$

TEXAS HILL COUNTRY AND EDWARDS PLATEAU

CITY           SKY/WX    TMP DP  RH WIND       PRES   REMARKS
LLANO          NOT AVBL
HORSESHOE BAY  FAIR      36  32  87 CALM      30.21F
KERRVILLE      PTCLDY    38  36  89 CALM      30.20F
FREDERICKSBRG  PTCLDY    36  31  82 CALM      30.20F
ROCKSPRINGS    NOT AVBL
HONDO          CLOUDY    46  30  53 N5        30.20F
UVALDE         MOSUNNY   43  32  64 NE6       30.20F WCI  40
DEL RIO        CLOUDY    46  33  60 NE5       30.17F
$$

SOUTHEAST TEXAS

CITY           SKY/WX    TMP DP  RH WIND       PRES   REMARKS
COLLEGE STN    PTCLDY    47  34  60 CALM      30.22F
CALDWELL       CLOUDY    41  37  86 CALM      30.23F
CROCKETT       NOT AVBL
BRENHAM        NOT AVBL
HUNTSVILLE     CLOUDY    42  37  82 CALM      30.23R
CONROE         PTCLDY    39  39 100 CALM      30.23R
HOUSTON BUSH   CLOUDY    45  40  82 N5        30.23R
HOUSTON HOBBY  CLOUDY    49  40  71 CALM      30.21F
PERLAND        MOCLDY    48  43  82 CALM      30.22F
WHARTON        CLOUDY    46  39  76 CALM      30.22S
$$

THE UPPER TEXAS COAST

CITY           SKY/WX    TMP DP  RH WIND       PRES   REMARKS
ORANGE         CLOUDY    44  38  81 CALM      30.22F
PORT ARTHUR    CLOUDY    47  38  71 N6        30.20F
GALVESTON      CLOUDY    58  41  53 N12       30.21F
ANGLETON       PTCLDY    46  42  86 CALM      30.20F
BAY CITY       MOSUNNY   49  41  73 CALM      30.21S
$$

TEXAS COASTAL BEND, RIO GRANDE PLAINS DEEP SOUTH TEXAS

CITY           SKY/WX    TMP DP  RH WIND       PRES   REMARKS
VICTORIA       PTCLDY    47  39  74 NE6       30.22S
BEEVILLE       FAIR      48  41  75 NE5       30.19F
ROCKPORT       CLOUDY    57  44  62 N6        30.20S
PORT ARANSAS   NOT AVBL
PORT LAVACA    MOSUNNY   51  39  63 NE3       30.21S
CORPUS CHRISTI CLOUDY    50  34  54 NW6       30.20S
KINGSVILLE NAS MOCLDY    48  40  73 NW3       30.20F
COTULLA        CLOUDY    50  33  52 SE3       30.20F
LAREDO         CLEAR     50  37  61 E5        30.20F
BROWNSVILLE    MOCLDY    58  47  66 N7        30.16F
PORT ISABEL    CLOUDY    57  46  66 NW8       30.16F
HEBBRONVILLE   NOT AVBL
MCALLEN        CLEAR     57  45  64 NE6       30.18F
WESLACO        CLEAR     51  44  78 CALM      30.17F
FALFURRIAS     NOT AVBL
EDINBURG       SUNNY     53  45  74 CALM      30.19F
$$



USA.gov is the U.S. government's official web portal to all federal, state and local government web resources and services.